Voltar ao catálogo

STARLINK-32725

AtivoComunicaçõesVLEO
NORAD 62505·PAYLOAD·🇺🇸 United States

Lançado Jan 6, 2025 de Cape Canaveral Space Force Station

Loading…

Próximas Passagens (próximas 24 horas)

TLE

AtualizadoSource: CelesTrak SupGP

Época: Sep 15, 2026, 03:02 UTC

1 62505C 25003U   26258.12687500  .00015973  00000+0  57838-3 0  2586
2 62505  43.0021 298.7039 0001365 261.1885 264.6846 15.27579285    12

Acompanhe STARLINK-32725 em tempo real com AllMySat

Download on the App Store